This is the latest recevied weather packets stored in our database for station/object KC3AWA. If no packets are shown the sender has not sent any weather packets the latest 10 day(s).
| Time | Temp. | Humidity | Pressure | Rain* | Wind** | Luminosity | Snow |
|---|---|---|---|---|---|---|---|
| 1778164767 | 12.22° C | 44% | 1013.1 hPa | 0 mm | - | 720 W/m² | - |
| 1778164464 | 12.22° C | 48% | 1013.4 hPa | 0 mm | - | 688 W/m² | - |
| 1778164160 | 12.22° C | 49% | 1013.3 hPa | 0 mm | - | 665 W/m² | - |
| 1778163856 | 11.67° C | 50% | 1013.7 hPa | 0 mm | - | 639 W/m² | - |
| 1778163554 | 12.22° C | 55% | 1013.8 hPa | 0 mm | - | 622 W/m² | - |
| 1778163250 | 11.67° C | 51% | 1013.6 hPa | 0 mm | - | 601 W/m² | - |
| 1778162947 | 12.22° C | 51% | 1013.8 hPa | 0 mm | - | 540 W/m² | - |
| 1778162643 | 11.67° C | 52% | 1013.6 hPa | 0 mm | - | 581 W/m² | - |
| 1778162341 | 11.11° C | 55% | 1013.8 hPa | 0 mm | - | 456 W/m² | - |
| 1778162038 | 11.11° C | 56% | 1013.7 hPa | 0 mm | - | 238 W/m² | - |
| 1778161735 | 11.67° C | 56% | 1013.8 hPa | 0 mm | - | 418 W/m² | - |
| 1778161431 | 11.11° C | 57% | 1013.8 hPa | 0 mm | - | 642 W/m² | - |
| 1778161127 | 11.11° C | 56% | 1013.9 hPa | 0 mm | - | 520 W/m² | - |
| 1778160823 | 11.11° C | 55% | 1013.6 hPa | 0 mm | - | 278 W/m² | - |
| 1778160522 | 11.11° C | 59% | 1013.9 hPa | 0 mm | - | 404 W/m² | - |
| 1778160218 | 11.11° C | 57% | 1014 hPa | 0 mm | - | 332 W/m² | - |
| 1778159915 | 10.56° C | 59% | 1013.8 hPa | 0 mm | - | 311 W/m² | - |
| 1778159611 | 10° C | 60% | 1013.8 hPa | 0 mm | - | 525 W/m² | - |
| 1778159309 | 10° C | 60% | 1013.7 hPa | 0 mm | - | 190 W/m² | - |
| 1778159006 | 10.56° C | 60% | 1013.8 hPa | 0 mm | - | 194 W/m² | - |
| 1778158705 | 10° C | 64% | 1013.8 hPa | 0 mm | - | 262 W/m² | - |
| 1778158402 | 8.89° C | 65% | 1013.8 hPa | 0 mm | - | 335 W/m² | - |
| 1778158099 | 8.33° C | 69% | 1013.7 hPa | 0 mm | - | 353 W/m² | - |
| 1778157795 | 8.33° C | 72% | 1013.8 hPa | 0 mm | - | 338 W/m² | - |
| 1778157494 | 7.78° C | 73% | 1013.9 hPa | 0 mm | - | 305 W/m² | - |
* Rain latest hour (hover to see other rain measurements)
** Current wind speed in m/s (hover to see current wind gust speed)